Flag for Canada Weather past 2 weeks in Camrose, Alberta, Canada

Now
30 °F

Passing clouds.


Feels Like: 21 °F
Forecast: 20 / 37 °F
Wind: 10 mph from West

Location: Edmonton International

Current Time: Mar 6, 2015 at 7:24:45 AM

Latest Report: Mar 6, 2015 at 6:00 AM


Visibility: 15 mi

Pressure: 30.00 "Hg

Humidity: 69%

Dew point: 21 °F

Location of CamroseLocation

Historic Weather in Camrose — Graph

°F

Camrose temperature yesterday

Maximum temperature yesterday: 39 °F (at 1:00 PM)
Minimum temperature yesterday: 16 °F (at 12:00 AM)
Average temperature yesterday: 29 °F

Past Weeks' High & Low Weather Summary

 TemperatureHumidityPressure
High43 °F (Feb 19, 12:00 PM)93% (Feb 20, 5:00 AM)30.76 "Hg (Feb 20, 5:00 AM)
Low-9 °F (Mar 3, 11:00 PM)44% (Feb 21, 3:00 PM)29.86 "Hg (Feb 24, 11:00 AM)
Average17 °F70%30.28 "Hg
* Reported Feb 19 6:00 AM — Mar 6 6:00 AM, Camrose, Weather by CustomWeather, © 2015

Note: Actual official high and low records may vary slightly from our data, if they occured in-between our weather recording intervals... More about our weather records

Advertising

Camrose weather history for previous 24 hours

 ConditionsComfort  
Time TempWeatherWind HumidityBarometerVisibility
6:00 AM
Fri, Mar 6
30 °FPassing clouds.10 mph69%30.00 "Hg15 mi
5:00 AM34 °FPassing clouds.12 mph70%29.98 "Hg15 mi
4:00 AM34 °FPartly cloudy.10 mph70%29.98 "Hg15 mi
3:00 AM36 °FPassing clouds.7 mph70%29.98 "Hg15 mi
2:00 AM36 °FMostly cloudy.3 mph70%29.97 "Hg15 mi
1:00 AM36 °FMostly cloudy.3 mph70%29.97 "Hg15 mi
12:00 AM34 °FOvercast.5 mph70%29.98 "Hg15 mi
11:00 PM
Thu, Mar 5
34 °FMostly cloudy.7 mph70%29.99 "Hg15 mi
10:00 PM34 °FOvercast.10 mph65%30.01 "Hg15 mi
9:00 PM30 °FPassing clouds.7 mph69%30.02 "Hg15 mi
8:00 PM28 °FPartly cloudy.10 mph74%30.03 "Hg15 mi
7:00 PM30 °FPartly cloudy.9 mph69%30.05 "Hg15 mi
6:00 PM34 °FPartly sunny.10 mph70%30.06 "Hg15 mi
5:00 PM36 °FPartly sunny.6 mph65%30.07 "Hg15 mi
4:00 PM36 °FPartly sunny.6 mph65%30.07 "Hg15 mi
3:00 PM36 °FBroken clouds.9 mph70%30.08 "Hg15 mi
2:00 PM37 °FPartly sunny.9 mph60%30.08 "Hg15 mi
1:00 PM39 °FPartly sunny.9 mph52%30.09 "Hg15 mi
12:00 PM37 °FBroken clouds.7 mph52%30.10 "Hg15 mi
11:00 AM34 °FPartly sunny.8 mph56%30.10 "Hg15 mi
10:00 AM34 °FPartly sunny.12 mph51%30.09 "Hg15 mi
9:00 AM28 °FBroken clouds.9 mph55%30.09 "Hg15 mi
8:00 AM27 °FBroken clouds.9 mph59%30.09 "Hg15 mi
7:00 AM27 °FPassing clouds.8 mph54%30.06 "Hg15 mi
Weather by CustomWeather, © 2015

See weather overviewHow to use our weather pages